This is the latest recevied weather packets stored in our database for station/object OE2ATN. If no packets are shown the sender has not sent any weather packets the latest 10 day(s).
| Time | Temp. | Humidity | Pressure | Rain* | Wind** | Luminosity | Snow |
|---|---|---|---|---|---|---|---|
| 1777889064 | 21.67° C | 42% | 1021.5 hPa | 0 mm | - | - | - |
| 1777888764 | 21.67° C | 43% | 1021.7 hPa | 0 mm | - | - | - |
| 1777888464 | 21.67° C | 43% | 1021.8 hPa | 0 mm | - | - | - |
| 1777888163 | 21.11° C | 41% | 1021.7 hPa | 0 mm | - | - | - |
| 1777887863 | 20.56° C | 47% | 1021.8 hPa | 0 mm | - | - | - |
| 1777887563 | 20.56° C | 45% | 1021.9 hPa | 0 mm | - | - | - |
| 1777887264 | 20° C | 48% | 1021.9 hPa | 0 mm | - | - | - |
| 1777886963 | 20° C | 52% | 1022 hPa | 0 mm | - | - | - |
| 1777886663 | 19.44° C | 49% | 1022.1 hPa | 0 mm | - | - | - |
| 1777886362 | 19.44° C | 48% | 1022.1 hPa | 0 mm | - | - | - |
| 1777886063 | 19.44° C | 48% | 1022.2 hPa | 0 mm | - | - | - |
| 1777885763 | 18.89° C | 50% | 1022.4 hPa | 0 mm | - | - | - |
| 1777885463 | 18.89° C | 50% | 1022.4 hPa | 0 mm | - | - | - |
| 1777885163 | 18.33° C | 50% | 1022.4 hPa | 0 mm | - | - | - |
| 1777884861 | 18.33° C | 54% | 1022.5 hPa | 0 mm | - | - | - |
| 1777884562 | 17.78° C | 52% | 1022.5 hPa | 0 mm | - | - | - |
| 1777884260 | 17.78° C | 53% | 1022.6 hPa | 0 mm | - | - | - |
| 1777883961 | 17.22° C | 54% | 1022.7 hPa | 0 mm | - | - | - |
| 1777883660 | 17.22° C | 56% | 1022.7 hPa | 0 mm | - | - | - |
| 1777883360 | 16.67° C | 55% | 1022.8 hPa | 0 mm | - | - | - |
| 1777883060 | 16.67° C | 53% | 1022.9 hPa | 0 mm | - | - | - |
| 1777882760 | 16.11° C | 55% | 1022.9 hPa | 0 mm | - | - | - |
| 1777882457 | 15.56° C | 59% | 1022.9 hPa | 0 mm | - | - | - |
| 1777882264 | 15.56° C | 62% | 1023.1 hPa | 0 mm | - | - | - |
| 1777881965 | 15.56° C | 62% | 1023.1 hPa | 0 mm | - | - | - |
* Rain latest hour (hover to see other rain measurements)
** Current wind speed in m/s (hover to see current wind gust speed)